EW7114 Weather Reports


Display with metric or nautical units.
time (UTC)temp
F
wind
direction
speed
MPH
gust
MPH
rain 1hr
in
rain 24hr
in
rain mn
in
humidity
%
barometer
mb
20260510215541 78 107 2.0 10.0 0.00 0.00 0.00 15 1014.8
20260510215042 79 13 1.0 4.0 0.00 0.00 0.00 15 1014.9
20260510214545 79 47 1.0 8.0 0.00 0.00 0.00 15 1015.0
20260510214035 79 97 3.0 7.0 0.00 0.00 0.00 14 1015.2
20260510213534 78 105 1.0 9.0 0.00 0.00 0.00 16 1015.3
20260510213032 78 66 3.0 9.0 0.00 0.00 0.00 15 1015.2
20260510212531 78 2 1.0 5.0 0.00 0.00 0.00 14 1015.4
20260510212029 78 32 0.0 6.0 0.00 0.00 0.00 14 1015.4
20260510211528 78 105 2.0 10.0 0.00 0.00 0.00 15 1015.5
20260510211026 78 5 5.0 10.0 0.00 0.00 0.00 15 1015.6
20260510210527 78 45 4.0 9.0 0.00 0.00 0.00 16 1015.6
20260510210023 78 45 3.0 13.0 0.00 0.00 0.00 15 1015.6
20260510205522 77 18 5.0 13.0 0.00 0.00 0.00 16 1015.7
20260510205021 77 97 5.0 9.0 0.00 0.00 0.00 15 1015.7
20260510204520 77 94 4.0 9.0 0.00 0.00 0.00 14 1015.8
20260510204021 76 87 2.0 8.0 0.00 0.00 0.00 15 1015.8
20260510203516 76 109 3.0 10.0 0.00 0.00 0.00 15 1015.9
20260510203014 76 23 4.0 10.0 0.00 0.00 0.00 16 1015.9
20260510202516 76 359 7.0 10.0 0.00 0.00 0.00 16 1015.9
20260510202014 76 20 4.0 9.0 0.00 0.00 0.00 17 1015.9
20260510201511 76 345 3.0 6.0 0.00 0.00 0.00 15 1016.1
20260510201009 75 292 0.0 8.0 0.00 0.00 0.00 16 1016.0
20260510200508 75 84 4.0 9.0 0.00 0.00 0.00 16 1016.1
20260510200007 75 5 3.0 9.0 0.00 0.00 0.00 16 1016.1
20260510195504 75 16 3.0 8.0 0.00 0.00 0.00 16 1016.2
20260510195003 75 305 1.0 7.0 0.00 0.00 0.00 16 1016.3
20260510194503 75 214 3.0 7.0 0.00 0.00 0.00 18 1016.3
20260510194100 75 359 1.0 5.0 0.00 0.00 0.00 16 1016.3
20260510193559 75 359 3.0 6.0 0.00 0.00 0.00 17 1016.4
20260510193102 75 20 1.0 13.0 0.00 0.00 0.00 17 1016.5
20260510192555 75 295 7.0 13.0 0.00 0.00 0.00 16 1016.4
20260510192056 76 26 5.0 10.0 0.00 0.00 0.00 16 1016.6
20260510191557 76 76 5.0 9.0 0.00 0.00 0.00 16 1016.7
20260510191051 75 47 2.0 8.0 0.00 0.00 0.00 18 1016.7
20260510190551 74 113 0.0 6.0 0.00 0.00 0.00 18 1016.8
20260510190050 74 307 0.0 8.0 0.00 0.00 0.00 17 1016.8
20260510185547 74 95 3.0 8.0 0.00 0.00 0.00 18 1016.8
20260510185044 73 290 0.0 8.0 0.00 0.00 0.00 17 1016.9
20260510184546 73 268 1.0 8.0 0.00 0.00 0.00 20 1017.0
20260510184045 73 233 1.0 5.0 0.00 0.00 0.00 18 1017.1
20260510183541 72 255 3.0 9.0 0.00 0.00 0.00 19 1017.1
20260510183040 72 234 5.0 9.0 0.00 0.00 0.00 19 1017.2
20260510182538 73 261 3.0 10.0 0.00 0.00 0.00 19 1017.3
20260510182036 73 85 3.0 10.0 0.00 0.00 0.00 19 1017.3
20260510181554 72 75 3.0 10.0 0.00 0.00 0.00 19 1017.3
20260510181036 72 178 7.0 10.0 0.00 0.00 0.00 20 1017.5
20260510180533 72 277 1.0 12.0 0.00 0.00 0.00 19 1017.5
20260510180041 71 109 5.0 12.0 0.00 0.00 0.00 20 1017.5
20260510175530 71 113 4.0 9.0 0.00 0.00 0.00 21 1017.7
20260510175029 70 205 3.0 10.0 0.00 0.00 0.00 22 1017.6
20260510174528 71 239 4.0 10.0 0.00 0.00 0.00 21 1017.6
20260510174025 70 163 2.0 10.0 0.00 0.00 0.00 21 1017.6
20260510173524 70 161 5.0 10.0 0.00 0.00 0.00 22 1017.6
20260510173025 70 186 7.0 14.0 0.00 0.00 0.00 22 1017.7
20260510172521 70 163 7.0 15.0 0.00 0.00 0.00 21 1017.6
20260510172020 69 108 2.0 10.0 0.00 0.00 0.00 22 1017.6
20260510171521 69 168 6.0 10.0 0.00 0.00 0.00 22 1017.7
20260510171017 69 170 5.0 8.0 0.00 0.00 0.00 22 1017.6
20260510170516 69 150 4.0 11.0 0.00 0.00 0.00 24 1017.6
20260510170014 69 131 6.0 11.0 0.00 0.00 0.00 24 1017.8
20260510165515 68 138 5.0 10.0 0.00 0.00 0.00 25 1017.7
20260510165013 68 194 6.0 10.0 0.00 0.00 0.00 25 1017.7
20260510164521 68 143 6.0 12.0 0.00 0.00 0.00 25 1017.7
20260510164007 68 134 6.0 12.0 0.00 0.00 0.00 25 1017.8
20260510163506 67 157 6.0 11.0 0.00 0.00 0.00 27 1017.8
20260510163005 66 179 2.0 11.0 0.00 0.00 0.00 27 1017.7
20260510162502 65 150 3.0 9.0 0.00 0.00 0.00 28 1017.7
20260510162001 64 143 4.0 8.0 0.00 0.00 0.00 28 1017.7
20260510161606 63 192 2.0 8.0 0.00 0.00 0.00 30 1017.8
20260510161059 62 151 3.0 6.0 0.00 0.00 0.00 31 1017.8
20260510160556 62 206 2.0 5.0 0.00 0.00 0.00 32 1017.9
20260510160056 61 211 2.0 5.0 0.00 0.00 0.00 34 1018.1
20260510155553 60 189 1.0 6.0 0.00 0.00 0.00 36 1018.1
20260510155053 59 217 1.0 5.0 0.00 0.00 0.00 37 1018.1
20260510154557 57 178 2.0 5.0 0.00 0.00 0.00 36 1018.2
20260510154050 56 172 2.0 5.0 0.00 0.00 0.00 37 1018.2
20260510153552 56 158 3.0 5.0 0.00 0.00 0.00 39 1018.2
20260510153051 55 163 3.0 5.0 0.00 0.00 0.00 40 1018.2
20260510152545 54 218 1.0 4.0 0.00 0.00 0.00 42 1018.3
20260510152045 53 218 1.0 4.0 0.00 0.00 0.00 42 1018.2
20260510151545 52 218 0.0 3.0 0.00 0.00 0.00 43 1018.3
20260510151040 51 218 0.0 3.0 0.00 0.00 0.00 44 1018.3
20260510150538 50 218 0.0 3.0 0.00 0.00 0.00 45 1018.3
20260510150049 49 218 0.0 2.0 0.00 0.00 0.00 46 1018.3
20260510145535 48 218 0.0 3.0 0.00 0.00 0.00 49 1018.4
20260510145035 47 218 1.0 3.0 0.00 0.00 0.00 51 1018.4
20260510144536 46 228 1.0 3.0 0.00 0.00 0.00 52 1018.4
20260510144031 45 135 0.0 2.0 0.00 0.00 0.00 53 1018.4
20260510143530 44 137 0.0 2.0 0.00 0.00 0.00 53 1018.4
20260510143029 42 137 0.0 2.0 0.00 0.00 0.00 52 1018.5
20260510142527 41 207 0.0 3.0 0.00 0.00 0.00 51 1018.4
20260510142025 40 207 0.0 3.0 0.00 0.00 0.00 50 1018.4
20260510141524 39 207 1.0 3.0 0.00 0.00 0.00 44 1018.5
20260510141023 38 207 1.0 3.0 0.00 0.00 0.00 42 1018.4
20260510140520 37 207 1.0 3.0 0.00 0.00 0.00 40 1018.3
20260510140019 37 249 1.0 3.0 0.00 0.00 0.00 41 1018.3
20260510135521 36 215 0.0 0.0 0.00 0.00 0.00 38 1018.2
20260510135021 35 215 0.0 0.0 0.00 0.00 0.00 35 1018.2
20260510134516 34 217 0.0 0.0 0.00 0.00 0.00 34 1018.1
20260510134014 33 217 0.0 0.0 0.00 0.00 0.00 34 1018.1
20260510133512 32 215 0.0 0.0 0.00 0.00 0.00 34 1017.9
20260510133011 31 215 0.0 0.0 0.00 0.00 0.00 32 1017.9
20260510132510 30 215 0.0 0.0 0.00 0.00 0.00 31 1017.9
20260510132009 30 215 0.0 0.0 0.00 0.00 0.00 25 1017.8
20260510131509 29 215 0.0 0.0 0.00 0.00 0.00 23 1017.6
20260510131006 28 215 0.0 0.0 0.00 0.00 0.00 30 1017.5
20260510130505 27 215 0.0 0.0 0.00 0.00 0.00 34 1017.6
20260510130003 27 215 0.0 1.0 0.00 0.00 0.00 39 1017.4
20260510125501 28 215 0.0 4.0 0.00 0.00 0.00 37 1017.2
20260510125100 28 215 1.0 4.0 0.00 0.00 0.00 34 1017.2
20260510124606 29 215 1.0 3.0 0.00 0.00 0.00 27 1017.1
20260510124057 29 215 2.0 3.0 0.00 0.00 0.00 21 1017.0
20260510123556 29 215 0.0 0.0 0.00 0.00 0.00 15 1016.9
20260510123059 29 215 0.0 0.0 0.00 0.00 0.00 15 1016.9
20260510122556 28 215 0.0 0.0 0.00 0.00 0.00 16 1016.8
20260510122051 28 215 0.0 2.0 0.00 0.00 0.00 18 1016.7
20260510121551 27 215 0.0 2.0 0.00 0.00 0.00 25 1016.7
20260510121048 26 215 0.0 0.0 0.00 0.00 0.00 45 1016.6
20260510120551 26 215 0.0 3.0 0.00 0.00 0.00 47 1016.6
20260510120045 27 215 1.0 3.0 0.00 0.00 0.00 47 1016.6
20260510115544 28 215 0.0 2.0 0.00 0.00 0.00 45 1016.5
20260510115043 29 215 0.0 0.0 0.00 0.00 0.00 43 1016.4
20260510114550 30 215 0.0 0.0 0.00 0.00 0.00 40 1016.3
20260510114040 31 215 0.0 1.0 0.00 0.00 0.00 29 1016.4
20260510113538 32 215 0.0 0.0 0.00 0.00 0.00 19 1016.3
20260510113037 32 215 0.0 1.0 0.00 0.00 0.00 19 1016.2
20260510112538 32 215 0.0 3.0 0.00 0.00 0.00 15 1016.2
20260510112034 32 215 0.0 3.0 0.00 0.00 0.00 13 1016.1
20260510111537 31 215 2.0 3.0 0.00 0.00 0.00 7 1016.1
20260510111030 31 215 1.0 2.0 0.00 0.00 0.00 4 1016.1
20260510110532 29 215 1.0 2.0 0.00 0.00 0.00 8 1016.0
20260510110033 28 215 0.0 2.0 0.00 0.00 0.00 37 1016.0
20260510105527 28 215 0.0 0.0 0.00 0.00 0.00 43 1015.8
20260510105025 29 215 0.0 0.0 0.00 0.00 0.00 42 1015.8
20260510104524 30 215 0.0 0.0 0.00 0.00 0.00 36 1015.7
20260510104022 31 215 0.0 0.0 0.00 0.00 0.00 27 1015.6
20260510103520 32 215 0.0 0.0 0.00 0.00 0.00 15 1015.6
20260510103019 32 215 0.0 2.0 0.00 0.00 0.00 18 1015.5
20260510102518 32 215 0.0 2.0 0.00 0.00 0.00 20 1015.5
20260510102019 32 215 0.0 1.0 0.00 0.00 0.00 21 1015.5
20260510101515 32 215 0.0 1.0 0.00 0.00 0.00 20 1015.5
20260510101013 31 215 0.0 4.0 0.00 0.00 0.00 23 1015.3
20260510100512 31 215 0.0 4.0 0.00 0.00 0.00 35 1015.2
20260510100010 31 215 2.0 3.0 0.00 0.00 0.00 33 1015.1
20260510095514 32 215 0.0 2.0 0.00 0.00 0.00 19 1015.1
20260510095012 32 215 0.0 3.0 0.00 0.00 0.00 25 1015.1
20260510094518 31 215 1.0 3.0 0.00 0.00 0.00 41 1015.0
20260510094004 31 215 0.0 0.0 0.00 0.00 0.00 47 1014.9
20260510093502 32 215 0.0 1.0 0.00 0.00 0.00 48 1014.8
20260510093121 32 215 0.0 3.0 0.00 0.00 0.00 49 1014.8
20260510092600 33 215 1.0 3.0 0.00 0.00 0.00 49 1014.7
20260510092059 33 215 0.0 3.0 0.00 0.00 0.00 49 1014.7
20260510091559 33 215 1.0 3.0 0.00 0.00 0.00 50 1014.6
20260510091057 34 215 2.0 3.0 0.00 0.00 0.00 45 1014.6
20260510090556 35 215 0.0 2.0 0.00 0.00 0.00 45 1014.5
20260510090055 34 215 0.0 0.0 0.00 0.00 0.00 53 1014.4
20260510085553 34 215 0.0 0.0 0.00 0.00 0.00 55 1014.3
20260510085052 35 215 0.0 0.0 0.00 0.00 0.00 56 1014.3
20260510084550 36 215 0.0 0.0 0.00 0.00 0.00 55 1014.3
20260510084052 36 215 0.0 0.0 0.00 0.00 0.00 54 1014.2
20260510083549 36 215 0.0 0.0 0.00 0.00 0.00 55 1014.2
20260510083055 37 215 0.0 0.0 0.00 0.00 0.00 55 1014.2
20260510082545 38 215 0.0 1.0 0.00 0.00 0.00 55 1014.1
20260510082045 38 215 0.0 1.0 0.00 0.00 0.00 54 1014.1
20260510081544 38 215 0.0 1.0 0.00 0.00 0.00 54 1014.1
20260510081044 38 215 0.0 1.0 0.00 0.00 0.00 54 1014.1
20260510080545 38 215 0.0 2.0 0.00 0.00 0.00 53 1014.1
20260510075543 38 215 0.0 3.0 0.00 0.00 0.00 53 1014.0
20260510075042 38 215 1.0 2.0 0.00 0.00 0.00 53 1014.0
20260510074546 38 215 0.0 4.0 0.00 0.00 0.00 54 1013.9
20260510074041 38 215 1.0 4.0 0.00 0.00 0.00 53 1013.9
20260510073538 38 215 1.0 2.0 0.00 0.00 0.00 54 1013.8
20260510073049 38 215 0.0 0.0 0.00 0.00 0.00 55 1013.7
20260510072537 39 215 0.0 2.0 0.00 0.00 0.00 55 1013.7
20260510072037 39 215 0.0 5.0 0.00 0.00 0.00 55 1013.7
20260510071539 38 215 3.0 5.0 0.00 0.00 0.00 55 1013.6
20260510071034 38 215 3.0 5.0 0.00 0.00 0.00 55 1013.6
20260510070532 39 215 2.0 3.0 0.00 0.00 0.00 54 1013.5
20260510070032 39 215 0.0 3.0 0.00 0.00 0.00 53 1013.5
20260510065531 38 215 0.0 3.0 0.00 0.00 0.00 52 1013.4
20260510065030 39 215 0.0 2.0 0.00 0.00 0.00 49 1013.3
20260510064530 39 215 0.0 3.0 0.00 0.00 0.00 51 1013.3
20260510064028 38 215 1.0 3.0 0.00 0.00 0.00 54 1013.2
20260510063526 39 215 1.0 3.0 0.00 0.00 0.00 55 1013.1
20260510063025 40 215 1.0 3.0 0.00 0.00 0.00 55 1013.0
20260510062523 41 215 0.0 1.0 0.00 0.00 0.00 54 1013.0
20260510062022 41 215 0.0 2.0 0.00 0.00 0.00 54 1012.8
20260510061522 41 215 0.0 1.0 0.00 0.00 0.00 55 1012.7
20260510061021 41 215 0.0 2.0 0.00 0.00 0.00 55 1012.6
20260510060521 41 215 1.0 2.0 0.00 0.00 0.00 55 1012.6
20260510060034 41 215 1.0 3.0 0.00 0.00 0.00 55 1012.5
20260510055618 41 215 2.0 3.0 0.00 0.00 0.00 56 1012.5
20260510055017 41 215 0.0 2.0 0.00 0.00 0.00 55 1012.4
20260510054523 40 215 1.0 2.0 0.00 0.00 0.00 55 1012.4
20260510054021 40 215 1.0 2.0 0.00 0.00 0.00 56 1012.4
20260510053516 40 215 1.0 2.0 0.00 0.00 0.00 56 1012.4
20260510053015 39 215 0.0 2.0 0.00 0.00 0.00 56 1012.3
20260510052516 39 215 1.0 2.0 0.00 0.00 0.00 56 1012.2
20260510052014 39 215 0.0 2.0 0.00 0.00 0.00 53 1012.2
20260510051514 39 215 0.0 3.0 0.00 0.00 0.00 53 1012.1
20260510051012 38 215 1.0 3.0 0.00 0.00 0.00 54 1012.0
20260510050513 38 215 0.0 3.0 0.00 0.00 0.00 53 1012.0
20260510050014 39 215 1.0 3.0 0.00 0.00 0.00 52 1011.9
20260510045512 40 215 1.0 3.0 0.00 0.00 0.00 52 1012.0
20260510045008 41 215 0.0 3.0 0.00 0.00 0.00 53 1011.8
20260510044506 42 215 1.0 3.0 0.00 0.00 0.00 54 1011.9
20260510044005 43 215 0.0 3.0 0.00 0.00 0.00 53 1011.7
20260510043504 43 215 0.0 4.0 0.00 0.00 0.00 54 1011.7
20260510043002 43 215 2.0 4.0 0.00 0.00 0.00 54 1011.5
20260510042502 43 187 1.0 4.0 0.00 0.00 0.00 53 1011.5
20260510042100 44 170 2.0 4.0 0.00 0.00 0.00 51 1011.5
20260510041559 44 170 2.0 4.0 0.00 0.00 0.00 45 1011.4
20260510041058 45 170 0.0 3.0 0.00 0.00 0.00 44 1011.3
20260510040558 45 72 0.0 0.0 0.00 0.00 0.00 44 1011.2
20260510040059 45 72 0.0 0.0 0.00 0.00 0.00 45 1011.0
20260510035556 46 72 0.0 0.0 0.00 0.00 0.00 41 1010.9
20260510035055 47 72 0.0 0.0 0.00 0.00 0.00 40 1010.9
20260510034555 48 72 0.0 0.0 0.00 0.00 0.00 39 1010.8
20260510034055 49 72 0.0 0.0 0.00 0.00 0.00 40 1010.7
20260510033554 50 76 0.0 0.0 0.00 0.00 0.00 39 1010.6
20260510033102 51 74 0.0 2.0 0.00 0.00 0.00 37 1010.5
20260510032555 51 74 1.0 6.0 0.00 0.00 0.00 37 1010.5
20260510032053 53 74 3.0 6.0 0.00 0.00 0.00 37 1010.3
20260510031553 54 305 0.0 3.0 0.00 0.00 0.00 36 1010.2
20260510031052 54 305 1.0 3.0 0.00 0.00 0.00 35 1010.1
20260510030552 55 305 0.0 3.0 0.00 0.00 0.00 35 1010.0
20260510025553 56 294 1.0 3.0 0.00 0.00 0.00 35 1009.9
20260510025054 56 295 1.0 4.0 0.00 0.00 0.00 38 1009.8
20260510024555 56 278 1.0 3.0 0.00 0.00 0.00 36 1009.8
20260510024052 57 296 1.0 4.0 0.00 0.00 0.00 35 1009.7
20260510023551 58 294 2.0 4.0 0.00 0.00 0.00 34 1009.6
20260510023053 59 303 2.0 4.0 0.00 0.00 0.00 32 1009.5
20260510022552 62 280 2.0 5.0 0.00 0.00 0.00 31 1009.4
20260510022053 64 301 3.0 5.0 0.00 0.00 0.00 27 1009.3
20260510021558 67 38 0.0 2.0 0.00 0.00 0.00 24 1009.3
20260510021151 68 38 0.0 3.0 0.00 0.00 0.00 23 1009.3
20260510020552 69 38 1.0 4.0 0.00 0.00 0.00 23 1009.2
20260510020050 69 38 1.0 4.0 0.00 0.00 0.00 22 1009.2
20260510015550 70 57 1.0 3.0 0.00 0.00 0.00 21 1009.2
20260510015050 70 39 1.0 5.0 0.00 0.00 0.00 21 1009.1
20260510014549 70 55 2.0 5.0 0.00 0.00 0.00 21 1009.1
20260510014049 70 22 2.0 3.0 0.00 0.00 0.00 21 1009.1
20260510013549 70 17 1.0 5.0 0.00 0.00 0.00 21 1009.1
20260510013049 70 359 2.0 12.0 0.00 0.00 0.00 20 1009.1
20260510012547 70 45 5.0 12.0 0.00 0.00 0.00 19 1009.1
20260510012050 70 55 3.0 9.0 0.00 0.00 0.00 21 1009.1
20260510011549 70 74 4.0 10.0 0.00 0.00 0.00 20 1009.1
20260510011046 70 72 5.0 10.0 0.00 0.00 0.00 20 1009.2
20260510010547 70 24 4.0 11.0 0.00 0.00 0.00 20 1009.2
20260510010045 70 331 5.0 12.0 0.00 0.00 0.00 21 1009.1
20260510005547 70 11 8.0 17.0 0.00 0.00 0.00 21 1009.2
20260510005046 70 359 9.0 16.0 0.00 0.00 0.00 21 1009.0
20260510004548 71 22 10.0 17.0 0.00 0.00 0.00 22 1009.1
20260510004043 71 28 9.0 17.0 0.00 0.00 0.00 21 1009.1
20260510003542 71 12 10.0 17.0 0.00 0.00 0.00 22 1009.1
20260510003042 71 24 10.0 16.0 0.00 0.00 0.00 23 1009.1
20260510002541 71 359 9.0 16.0 0.00 0.00 0.00 22 1009.1
20260510002040 71 39 10.0 16.0 0.00 0.00 0.00 23 1009.1
20260510001540 71 45 8.0 18.0 0.00 0.00 0.00 22 1009.1
20260510001040 71 359 10.0 18.0 0.00 0.00 0.00 23 1009.2
20260510000541 71 31 10.0 17.0 0.00 0.00 0.00 23 1009.1
20260510000042 71 317 6.0 15.0 0.00 0.00 0.00 21 1009.1
20260509235538 72 20 9.0 15.0 0.00 0.00 0.00 24 1009.0
20260509235037 72 345 9.0 17.0 0.00 0.00 0.00 24 1009.0
20260509234541 72 51 10.0 17.0 0.00 0.00 0.00 24 1009.0
20260509234040 71 52 11.0 19.0 0.00 0.00 0.00 25 1009.0
20260509233539 71 16 10.0 19.0 0.00 0.00 0.00 24 1009.2
20260509233037 71 27 6.0 18.0 0.00 0.00 0.00 24 1009.2
20260509232538 72 1 9.0 18.0 0.00 0.00 0.00 25 1009.1
20260509232035 72 38 9.0 16.0 0.00 0.00 0.00 25 1009.0
20260509231539 72 30 10.0 16.0 0.00 0.00 0.00 25 1009.0
20260509231034 71 51 8.0 18.0 0.00 0.00 0.00 26 1009.1
20260509230534 71 30 9.0 17.0 0.00 0.00 0.00 25 1009.1
20260509230034 72 6 12.0 17.0 0.00 0.00 0.00 25 1009.2
20260509225535 72 40 11.0 16.0 0.00 0.00 0.00 26 1009.1
20260509225033 72 328 7.0 12.0 0.00 0.00 0.00 25 1009.2
20260509224534 72 345 7.0 15.0 0.00 0.00 0.00 26 1009.2
20260509224032 72 315 8.0 15.0 0.00 0.00 0.00 25 1009.3
20260509223531 72 350 8.0 18.0 0.00 0.00 0.00 26 1009.2
20260509223034 72 23 11.0 18.0 0.00 0.00 0.00 26 1009.2
20260509222530 71 20 7.0 16.0 0.00 0.00 0.00 27 1009.4
20260509222029 71 325 7.0 16.0 0.00 0.00 0.00 25 1009.4
20260509221530 71 338 11.0 17.0 0.00 0.00 0.00 26 1009.4
20260509221028 71 311 12.0 17.0 0.00 0.00 0.00 27 1009.5
20260509220531 71 345 7.0 15.0 0.00 0.00 0.00 28 1009.5